Location: �perlecques
(50.8057°N, 2.1521°E)
Time: 09:32:41
(UTC+00:00)

N. Korean satellite - Pass Details

Date: 05 December 2022
Orbit: 407 x 444 km, 97.3° (Epoch: 28 January)

Event Time Altitude Azimuth Distance (km) Brightness Sun altitude
Rises 04:23:37 0° 26° (NNE) 2,517 10.5 -29.4°
Reaches altitude 10° 04:26:07 10° 44° (NE) 1,628 9.7 -29.0°
Maximum altitude 04:28:44 20° 92° (E) 1,143 9.2 -28.6°
Drops below altitude 10° 04:31:19 10° 141° (SE) 1,599 9.6 -28.2°
Sets 04:33:43 0° 159° (SSE) 2,455 10.4 -27.8°
